{"data":{"norad_id":62092,"epoch":"2026-09-20T20:02:27.928608Z","epoch_age_seconds":152466,"freshness":"FRESH","line1":"1 62092U 24220E   26263.83504547  .00128245  00000+0  98487-3 0  9994","line2":"2 62092  43.0023 306.8776 0001646 284.5124  75.5561 15.70905839105645","mean_motion":15.70905839,"eccentricity":0.0001646,"inclination_deg":43.0023,"raan_deg":306.8776,"arg_perigee_deg":284.5124,"mean_anomaly_deg":75.5561,"bstar":0.00098487,"rev_number":10564,"period_min":91.666856424486,"perigee_km":355.19839849308,"apogee_km":357.415377421,"semimajor_km":6734.443887957,"source":"CELESTRAK","updated_at":"2026-09-22T09:00:49.496766Z"}}